Home > Time Zones > World Clock > Weather > Togo > Lome > Past weeks

Flag for Togo Weather past 2 weeks in Lome, Togo

Now
84 °F

Passing clouds.


Feels Like: 94 °F
Forecast: 81 / 85 °F
Wind: 9 mph from Southwest

Location: Lome Airport


UV Index: 10 (Very high)

Visibility: N/A


Pressure: 29.86 "Hg

Humidity: 79%

Dew point: 77 °F

Location of LomeLocation

Historic Weather in Lome

°F

Lome temperature yesterday

Maximum temperature yesterday: 90 °F (at 11:00 AM)
Minimum temperature yesterday: 75 °F (at 4:00 AM)
Average temperature yesterday: 83 °F

Past Weeks' High & Low Weather Summary

 TemperatureHumidityPressure
High91 °F (Apr 8, 12:00 PM)94% (Apr 7, 6:00 AM)29.98 "Hg (Apr 7, 6:00 AM)
Low73 °F (Apr 10, 6:30 AM)59% (Apr 9, 1:30 PM)29.71 "Hg (Apr 18, 4:30 PM)
Average84 °F79%29.85 "Hg
* Reported Midnight between Apr 4 and Apr 5 — Midnight between Apr 19 and Apr 20, Lome, Weather by CustomWeather, © 2014

Note: Actual official high and low records may vary slightly from our data, if they occured in-between our weather recording intervals... More about our weather records

Advertising

Historic Weather Conditions — Data for Previous 24 hours

 ConditionsComfort  
Time TempWeatherWind HumidityBarometerVisibility
12:00 AM
Apr 20
84 °FPassing clouds.7 mph79%29.89 "HgN/A
11:30 PM
Apr 19
84 °FPassing clouds.9 mph79%29.89 "HgN/A
11:00 PM84 °FPassing clouds.7 mph84%29.89 "HgN/A
10:30 PM84 °FPassing clouds.7 mph84%29.89 "HgN/A
10:00 PM84 °FPassing clouds.8 mph79%29.89 "HgN/A
9:00 PM84 °FPassing clouds.8 mph84%29.89 "HgN/A
8:30 PM84 °FPassing clouds.9 mph84%29.89 "HgN/A
8:00 PM84 °FThunderstorms. Passing clouds.10 mph84%29.86 "HgN/A
7:30 PM84 °FThunderstorms. Passing clouds.10 mph79%29.86 "HgN/A
7:00 PM84 °FThunderstorms. Passing clouds.10 mph79%29.83 "HgN/A
6:30 PM84 °FThunderstorms. Passing clouds.13 mph79%29.83 "HgN/A
6:00 PM84 °FPassing clouds.13 mph79%29.83 "HgN/A
5:30 PM86 °FPassing clouds.12 mph75%29.80 "HgN/A
5:00 PM86 °FPassing clouds.13 mph75%29.80 "HgN/A
4:30 PM88 °FPassing clouds.12 mph70%29.80 "HgN/A
4:00 PM88 °FPassing clouds.13 mph70%29.80 "HgN/A
3:30 PM90 °FPassing clouds.13 mph63%29.80 "HgN/A
3:00 PM90 °FPassing clouds.10 mph63%29.80 "HgN/A
2:30 PM90 °FPassing clouds.12 mph63%29.80 "HgN/A
2:00 PM90 °FPassing clouds.12 mph63%29.80 "HgN/A
1:30 PM90 °FPassing clouds.15 mph63%29.83 "HgN/A
1:00 PM90 °FPassing clouds.13 mph63%29.83 "HgN/A
12:30 PM90 °FPassing clouds.12 mph63%29.83 "HgN/A
12:00 PM90 °FPassing clouds.12 mph59%29.86 "HgN/A
11:30 AM90 °FPassing clouds.9 mph63%29.86 "HgN/A
11:00 AM90 °FPassing clouds.9 mph63%29.86 "HgN/A
10:30 AM88 °FPassing clouds.10 mph62%29.89 "HgN/A
10:00 AM86 °FPassing clouds.7 mph70%29.89 "HgN/A
9:30 AM86 °FPassing clouds.3 mph70%29.89 "HgN/A
9:00 AM84 °FPassing clouds.1 mph74%29.89 "HgN/A
8:30 AM81 °FPassing clouds.3 mph84%29.89 "HgN/A
8:00 AM79 °FPassing clouds.5 mph84%29.89 "HgN/A
7:30 AM77 °FPassing clouds.6 mph89%29.89 "HgN/A
7:00 AM75 °FPassing clouds.5 mph94%29.89 "HgN/A
6:30 AM75 °FPassing clouds.5 mph94%29.89 "Hg5 mi
6:00 AM75 °FPassing clouds.3 mph94%29.86 "Hg5 mi
5:30 AM75 °FPassing clouds.3 mph89%29.86 "Hg5 mi
5:00 AM75 °FPassing clouds.3 mph94%29.83 "Hg5 mi
4:30 AM75 °FPassing clouds.3 mph89%29.83 "HgN/A
4:00 AM75 °FPassing clouds.2 mph94%29.83 "HgN/A
3:00 AM77 °FPassing clouds.3 mph89%29.83 "HgN/A
2:30 AM77 °FPassing clouds.1 mph89%29.83 "HgN/A
2:00 AM77 °FPassing clouds.3 mph89%29.83 "HgN/A
1:30 AM77 °FPassing clouds.2 mph83%29.83 "HgN/A
1:00 AM77 °FPassing clouds.2 mph83%29.83 "HgN/A
Weather by CustomWeather, © 2014

See weather overview